Location: Luz Observatory
(34.5000°N, 117.2833°W)
Time: 19:55:07
(UTC-07:00)

Daily predictions for brighter satellites

Satellite Brightness Start Highest point End
(mag) Time Altitude Azimuth Time Altitude Azimuth Time Altitude Azimuth
Atlas Centaur 2 2.4 18:23:44 10° W 18:27:46 48° S 18:32:47 10° ESE
Cosmos 1624 Rocket 4.3 18:24:10 10° NNW 18:29:24 77° WSW 18:34:38 10° S
Cosmos 2058 3.3 18:26:32 10° N 18:30:29 40° E 18:34:22 10° SSE
Cosmos 44 3.4 18:27:54 10° S 18:32:02 42° ESE 18:36:08 10° NE
APEX 3.4 18:29:43 10° S 18:32:52 33° ESE 18:35:35 10° NE
Cosmos 158 Rocket 4.3 18:29:05 10° S 18:33:48 43° ESE 18:38:39 10° NNE
Cosmos 2218 Rocket 4.2 18:27:52 10° S 18:34:01 79° W 18:40:10 10° N
Centaur AC-112 4.5 18:21:39 10° WSW 18:34:08 37° S 18:37:39 10° ESE
Cosmos 1626 2.1 18:31:28 10° N 18:35:11 65° E 18:38:52 10° SSE
Cosmos 1400 Rocket 2.7 18:36:31 10° N 18:40:32 75° E 18:44:27 10° SSE
SMAP 3.7 18:36:59 10° S 18:41:35 63° W 18:46:11 10° NNW
GP-B 3.1 18:38:53 10° N 18:43:21 79° E 18:47:46 10° S
Cosmos 1339 Rocket 4.5 18:37:17 10° N 18:43:36 72° E 18:49:47 10° SSE
Cosmos 2227 Rocket 3.9 18:42:53 10° ESE 18:44:57 12° E 18:46:46 10° ENE
Delta 2 Rocket 3.1 18:41:09 10° W 18:45:06 73° N 18:48:18 12° E
SKYMED 2 3.5 18:42:30 10° NNE 18:46:50 70° ESE 18:51:09 10° S
Cosmos 1727 Rocket 4.0 18:40:35 10° N 18:46:57 75° E 18:53:15 10° S
Cosmos 2221 2.8 18:43:00 10° SSE 18:47:05 43° E 18:51:11 10° NNE
Thor Agena Rocket 4.4 18:44:40 10° NE 18:48:56 27° E 18:53:10 10° SSE
Cosmos 1743 Rocket 3.7 18:44:42 10° N 18:49:06 84° W 18:53:31 10° S
Cosmos 1300 4.2 18:49:09 10° SE 18:51:32 16° E 18:53:56 10° NE
MOS 1 4.3 18:46:55 10° SSE 18:52:32 68° ENE 18:58:10 10° N
CZ-4 R/B 2.4 18:49:31 10° S 18:53:38 53° W 18:57:43 10° NNW
Cosmos 1842 Rocket 4.2 18:49:37 10° SSW 18:54:02 61° W 18:58:27 10° N
CZ-4 R/B 4.4 18:50:13 10° SSE 18:54:20 90° WSW 18:58:29 10° NNW
Abrixas 2.0 18:53:00 10° WSW 18:55:09 60° NW 18:56:42 16° NE
Cosmos 921 Rocket 3.1 18:53:01 10° N 18:57:22 56° ENE 19:01:37 10° SSE
Cosmos 44 Rocket 3.1 18:55:40 10° SSW 19:00:23 86° ESE 19:05:06 10° NNE
Hubble Space Telescope 2.8 19:00:02 10° SSW 19:02:28 15° SSE 19:04:35 11° SE
Cosmos 2360 Rocket 2.2 18:56:54 10° NNW 19:02:36 89° ENE 19:08:16 10° SSE
BREEZE M DEB (TANK) 4.5 19:02:06 10° NNW 19:02:59 11° N 19:03:45 10° N
OAO 1 Rocket 4.4 18:58:09 10° W 19:03:28 88° N 19:07:24 18° E
PSLV R/B 3.7 19:01:17 10° SW 19:04:13 40° SSE 19:05:40 23° E
Cosmos 1500 Rocket 4.0 19:05:39 10° NNW 19:09:55 62° W 19:14:10 10° S
COSMOS 2428 3.0 19:04:32 10° N 19:09:56 43° ENE 19:15:18 10° SE
Cosmos 2322 Rocket 4.5 19:06:31 10° NW 19:11:12 28° WSW 19:15:52 10° SSW
Cosmos 2219 3.2 19:06:46 10° SSW 19:12:28 73° ESE 19:18:12 10° NNE
Cosmos 2333 Rocket 3.3 19:08:18 10° N 19:12:52 24° ENE 19:14:33 21° E
Cosmos 1269 Rocket 3.9 19:11:46 10° SSW 19:17:01 82° ESE 19:22:19 10° NNE
FENGYUN 3A 3.6 19:13:52 10° SSE 19:19:12 67° ENE 19:24:35 10° N
CZ-4C R/B 2.1 19:14:54 10° SSW 19:19:57 84° WNW 19:25:41 10° NNE
USA 267 3.8 19:16:14 18° ENE 19:20:29 38° SE 19:26:28 10° SSW
Cosmos 2297 Rocket 3.3 19:17:57 10° SSE 19:21:52 23° ESE 19:21:52 23° ESE
SPOT 3 Rocket 3.7 19:17:35 10° S 19:22:45 76° WSW 19:27:59 10° NNW
Cosmos 1315 Rocket 3.5 19:22:37 10° NNW 19:26:38 59° W 19:30:41 10° S
Aureole 2 Rocket 3.5 19:24:07 10° N 19:27:31 33° ENE 19:27:31 33° ENE
FengYun 1-2 T 4.3 19:26:42 10° SE 19:31:59 50° ENE 19:37:15 10° N
ASTRO E2 3.5 19:30:03 10° W 19:33:51 41° SSW 19:35:10 31° SE
Cosmos 1726 2.2 19:31:07 10° S 19:34:49 76° W 19:38:30 10° N
Cosmos 1452 Rocket 4.4 19:30:06 10° NNW 19:35:10 50° WSW 19:40:14 10° S
Sich 1 3.2 19:32:47 10° N 19:37:01 47° E 19:37:56 40° ESE
NOSS 0 Rocket 4.5 19:32:08 10° N 19:37:44 35° ENE 19:38:45 33° E
Cosmos 2322 4.4 19:32:31 10° NNW 19:38:06 56° WSW 19:43:39 10° S
Cosmos 2098 Rocket 3.5 19:33:52 10° SSW 19:38:06 72° W 19:43:35 10° N
ALOS 2.5 19:34:53 10° S 19:39:30 69° WSW 19:44:11 10° NNW
Meteor 2-10 3.8 19:35:58 10° S 19:40:56 70° E 19:46:01 10° NNE
Cosmos 1535 Rocket 4.4 19:37:59 10° S 19:44:06 84° W 19:50:15 10° N
SJ-6B 4.5 19:47:03 20° N 19:47:03 20° N 19:48:22 10° N
Iridium 4 Rocket 4.3 19:40:59 10° SSW 19:46:22 60° W 19:52:09 10° N
Cosmos 494 Rocket 3.9 19:41:41 10° S 19:46:41 58° ESE 19:48:37 35° NE
Cosmos 1805 Rocket 3.6 19:44:23 10° N 19:48:46 77° W 19:53:10 10° S
Cosmos 2219 Rocket 2.2 19:45:01 10° NNW 19:50:32 58° ENE 19:51:54 45° ESE
Cosmos 1110 Rocket 4.4 19:48:04 10° N 19:52:31 42° NE 19:52:31 42° NE
BREEZE-M DEB (TANK) 4.4 19:48:16 10° WNW 19:55:27 26° NNW 19:56:57 22° NNE
Cosmos 1666 Rocket 3.3 19:53:32 10° N 19:57:53 83° E 19:57:57 83° ESE
MOS 1-B Rocket 4.1 20:03:20 49° NE 20:03:20 49° NE 20:08:34 10° N
Cosmos 1633 Rocket 3.7 19:59:52 10° N 20:02:58 44° N 20:02:58 44° N
H-2A R/B 3.1 20:06:09 62° W 20:06:09 62° W 20:09:57 10° NNW
Cosmos 2251 Rocket 3.8 20:04:25 10° S 20:08:28 52° SSE 20:08:28 52° SSE
DELTA 2 R/B (1) 3.6 20:05:28 10° WNW 20:11:02 70° SSW 20:11:39 64° SSE
Atlas Centaur 2 3.3 20:12:10 10° WSW 20:16:27 30° SSW 20:17:04 29° S
Gbstr 26 Del rocket 3.8 20:14:22 10° NW 20:19:35 69° NNE 20:19:35 69° NNE
In-Cosmos 22 Rocket 4.3 20:18:03 10° N 20:23:50 78° W 20:25:14 53° S
Cosmos 2237 Rocket 3.1 20:19:21 10° NNW 20:22:57 38° N 20:22:57 38° N
Cosmos 2227 Rocket 2.3 20:22:37 10° SSW 20:28:15 72° WNW 20:28:43 68° NNW
SL-16 R/B 4.4 20:31:21 10° N 20:32:02 13° N 20:32:02 13° N
Hubble Space Telescope 3.6 20:39:31 10° SW 20:39:57 12° SW 20:39:57 12° SW
Cosmos 2333 Rocket 3.3 20:51:52 10° NW 20:56:37 41° W 20:56:37 41° W
USA 267 3.8 21:03:38 52° NW 21:03:38 52° NW 21:09:48 10° WSW
Cosmos 2297 Rocket 3.8 21:00:40 10° SW 21:03:49 29° WSW 21:03:49 29° WSW
Centaur D AC-28 4.1 21:16:30 10° WSW 21:57:30 12° E 22:03:44 10° E
Centaur D AC-28 4.1 21:16:30 10° WSW 21:57:28 12° E 22:03:44 10° E
Centaur D AC-28 4.1 21:16:30 10° WSW 21:57:29 12° E 22:03:44 10° E
Centaur D AC-28 4.1 21:16:31 10° WSW 21:57:30 12° E 22:03:44 10° E
Centaur D AC-28 4.1 21:16:30 10° WSW 21:57:30 12° E 22:03:43 10° E
